Back to catalog

THORAD AGENA D DEB

AliveSSO
NORAD 4979·DEBRIS·🇺🇸 United States

Launched Apr 8, 1970 from Vandenberg Space Force Base

Loading…

Next Passes

TLE

Source: Space-Track
1  4979U 70025GZ  26221.64349860  .00000044  00000-0  12272-3 0  9991
2  4979 100.0404 106.0978 0013101 356.5709  31.8139 13.60005854789317

Track THORAD AGENA D DEB in real time with AllMySat

Download on the App Store